Torna al catalogo

FENGYUN 1C DEB

AttivoSSO
NORAD 30817·DEBRIS·🇨🇳 China

Lanciato May 10, 1999 da Taiyuan Satellite Launch Center

Loading…

Prossimi Passaggi (prossime 24 ore)

TLE

AggiornatoSource: Space-Track

Epoca: Sep 14, 2026, 10:29 UTC

1 30817U 99025AVB 26257.43710114  .00000056  00000-0  64962-4 0  9999
2 30817  98.7877 242.1354 0057202 196.3372 163.5951 14.00874733997692

Traccia FENGYUN 1C DEB in tempo reale con AllMySat

Download on the App Store